Location: Marcé
(47.5801°N, 0.3280°W)
Time: 10:52:12
(UTC+01:00)

Vanguard 3 - Pass Details

Date: 04 December 2021
Orbit: 508 x 3260 km, 33.3° (Epoch: 17 January)

Event Time Altitude Azimuth Distance (km) Brightness Sun altitude
Rises 07:27:11 0° 259° (W) 7,227 11.5 -10.5°
Reaches altitude 10° 07:32:28 10° 255° (WSW) 6,142 11.1 -9.7°
Maximum altitude 07:49:40 46° 191° (S) 3,223 10.3 -7.1°
Drops below altitude 10° 08:01:16 10° 123° (ESE) 4,232 12.7 -5.3°
Sets 08:04:10 0° 117° (ESE) 4,899 14.3 -4.9°
